Flag for Germany Weather past 2 weeks in Norden, Lower Saxony, Germany

Now
57 °F

Low clouds.


Feels Like: 55 °F
Forecast: 57 / 60 °F
Wind: 9 mph from Southwest

Location: Norderney

Current Time: Sep 4, 2015 at 10:42:44 AM

Latest Report: Sep 4, 2015 at 10:00 AM


Visibility: 19 mi

Pressure: 29.77 "Hg

Humidity: 88%

Dew point: 53 °F

Location of NordenLocation

Historic Weather in Norden — Graph

°F

Norden temperature yesterday

Maximum temperature yesterday: 62 °F (at 2:00 PM)
Minimum temperature yesterday: 56 °F (at 4:00 AM)
Average temperature yesterday: 58 °F

Past Weeks' High & Low Weather Summary

 TemperatureHumidityPressure
High77 °F (Aug 22, 4:00 PM)99% (Aug 31, 9:00 AM)30.25 "Hg (Aug 31, 9:00 AM)
Low55 °F (Sep 4, 7:00 AM)36% (Aug 22, 3:00 PM)29.47 "Hg (Aug 24, 7:00 PM)
Average64 °F75%29.93 "Hg
* Reported Aug 20 9:00 AM — Sep 4 9:00 AM, Norden, Weather by CustomWeather, © 2015

Note: Actual official high and low records may vary slightly from our data, if they occured in-between our weather recording intervals... More about our weather records

Advertising

Norden weather history for previous 24 hours

 ConditionsComfort  
Time TempWeatherWind HumidityBarometerVisibility
9:00 AM
Fri, Sep 4
56 °FLow clouds.8 mph90%29.77 "Hg15 mi
8:00 AM56 °FLow clouds.10 mph90%29.77 "Hg18 mi
7:00 AM55 °FOvercast.9 mph90%29.77 "Hg12 mi
5:00 AM56 °FDrizzle. Overcast.9 mph87%29.79 "Hg17 mi
4:00 AM56 °FDrizzle. Overcast.9 mph86%29.80 "Hg19 mi
3:00 AM56 °FOvercast.9 mph82%29.82 "Hg28 mi
2:00 AM56 °FOvercast.8 mph82%29.83 "Hg34 mi
1:00 AM56 °FOvercast.8 mph82%29.84 "Hg34 mi
11:00 PM
Thu, Sep 3
56 °FClear.7 mph78%29.85 "Hg43 mi
10:00 PM57 °FClear.7 mph75%29.86 "Hg43 mi
9:00 PM58 °FClear.8 mph71%29.86 "Hg43 mi
8:00 PM59 °FOvercast.8 mph66%29.85 "Hg43 mi
7:00 PM61 °FPartly sunny.6 mph63%29.86 "Hg17 mi
6:00 PM60 °FScattered clouds.6 mph64%29.86 "Hg28 mi
5:00 PM61 °FOvercast.7 mph60%29.87 "Hg16 mi
4:00 PM61 °FOvercast.7 mph61%29.87 "Hg12 mi
3:00 PM61 °FPartly sunny.8 mph63%29.87 "Hg9 mi
2:00 PM62 °FPassing clouds.8 mph64%29.87 "Hg6 mi
1:00 PM60 °FSunny.8 mph63%29.87 "Hg8 mi
12:00 PM60 °FScattered clouds.8 mph70%29.88 "Hg12 mi
11:00 AM59 °FPassing clouds.7 mph72%29.89 "Hg6 mi
10:00 AM57 °FScattered clouds.7 mph76%29.89 "Hg12 mi
Weather by CustomWeather, © 2015

See weather overviewHow to use our weather pages